EW7929 Weather Reports


time (UTC)temp
C
wind
direction
speed
KPH
gust
KPH
rain 1hr
cm
rain 24hr
cm
rain mn
cm
humidity
%
barometer
mb
20260503195027 6 278 0.0 0.0 0.00 0.00 0.00 60 1018.2
20260503194522 6 278 0.0 1.6 0.00 0.00 0.00 60 1018.2
20260503193509 6 74 0.0 1.6 0.00 0.00 0.00 57 1018.1
20260503193005 7 74 0.0 1.6 0.00 0.00 0.00 56 1018.0
20260503192502 7 74 0.0 0.0 0.00 0.00 0.00 56 1018.0
20260503191952 7 74 0.0 0.0 0.00 0.00 0.00 55 1018.0
20260503191452 7 74 0.0 0.0 0.00 0.00 0.00 54 1017.9
20260503190939 7 73 0.0 0.0 0.00 0.00 0.00 54 1017.8
20260503185928 8 74 0.0 1.6 0.00 0.00 0.00 52 1017.7
20260503185421 8 74 0.0 1.6 0.00 0.00 0.00 52 1017.6
20260503184409 8 74 0.0 1.6 0.00 0.00 0.00 50 1017.5
20260503183903 8 73 0.0 1.6 0.00 0.00 0.00 50 1017.5
20260503183359 9 74 0.0 3.2 0.00 0.00 0.00 49 1017.5
20260503182851 9 73 0.0 3.2 0.00 0.00 0.00 48 1017.3
20260503182351 10 74 0.0 3.2 0.00 0.00 0.00 48 1017.2
20260503181844 10 84 0.0 1.6 0.00 0.00 0.00 46 1017.2
20260503175820 10 98 0.0 1.6 0.00 0.00 0.00 46 1017.1
20260503175309 10 96 1.6 4.8 0.00 0.00 0.00 46 1017.0
20260503174804 10 98 1.6 6.4 0.00 0.00 0.00 45 1017.0
20260503174259 11 77 3.2 8.0 0.00 0.00 0.00 43 1016.9
20260503173259 11 104 4.8 9.7 0.00 0.00 0.00 42 1016.8
20260503172258 11 99 8.0 17.7 0.00 0.00 0.00 41 1016.8
20260503171758 11 120 9.7 17.7 0.00 0.00 0.00 40 1016.7
20260503170801 12 115 11.3 24.1 0.00 0.00 0.00 39 1016.7
20260503170255 12 115 11.3 24.1 0.00 0.00 0.00 38 1016.7
20260503150750 13 150 12.9 29.0 0.00 0.00 0.00 35 1016.2
20260503150249 14 160 14.5 29.0 0.00 0.00 0.00 35 1016.2
20260503140247 14 79 16.1 29.0 0.00 0.00 0.00 34 1016.6
20260503131244 14 88 14.5 29.0 0.00 0.00 0.00 36 1017.0
20260503130743 13 143 14.5 27.4 0.00 0.00 0.00 33 1017.0
20260503130243 14 148 14.5 27.4 0.00 0.00 0.00 34 1017.0
20260503110732 12 123 12.9 24.1 0.00 0.00 0.00 35 1017.8
20260503110229 12 103 9.7 24.1 0.00 0.00 0.00 37 1017.8
20260503100227 12 146 11.3 27.4 0.00 0.00 0.00 39 1018.4
20260503090224 11 95 14.5 29.0 0.00 0.00 0.00 39 1018.7
20260503081627 11 160 11.3 27.4 0.00 0.00 0.00 42 1018.6
20260503081129 11 167 11.3 27.4 0.00 0.00 0.00 43 1018.6
20260503080616 10 152 14.5 29.0 0.00 0.00 0.00 43 1018.6
20260503080111 10 169 14.5 29.0 0.00 0.00 0.00 41 1018.6
20260503072527 10 89 12.9 25.7 0.00 0.00 0.00 43 1018.6
20260503072022 10 123 12.9 22.5 0.00 0.00 0.00 44 1018.7
20260503071520 10 101 12.9 22.5 0.00 0.00 0.00 44 1018.7
20260503070504 10 129 14.5 25.7 0.00 0.00 0.00 44 1018.8
20260503054328 7 113 8.0 17.7 0.00 0.00 0.00 67 1018.7
20260503053821 7 98 6.4 11.3 0.00 0.00 0.00 70 1018.7
20260503052810 7 107 8.0 14.5 0.00 0.00 0.00 73 1018.6
20260503051758 6 87 6.4 14.5 0.00 0.00 0.00 73 1018.5
20260503051251 6 87 4.8 8.0 0.00 0.00 0.00 74 1018.5
20260503050745 6 146 4.8 9.7 0.00 0.00 0.00 74 1018.5
20260503050239 6 107 4.8 9.7 0.00 0.00 0.00 74 1018.2
20260503045733 6 118 4.8 8.0 0.00 0.00 0.00 75 1018.2
20260503045228 6 139 3.2 8.0 0.00 0.00 0.00 75 1018.1
20260503044722 6 153 4.8 11.3 0.00 0.00 0.00 76 1018.1
20260503044215 6 103 4.8 11.3 0.00 0.00 0.00 77 1018.0
20260503043711 6 104 3.2 9.7 0.00 0.00 0.00 78 1018.0
20260503043204 6 124 3.2 11.3 0.00 0.00 0.00 78 1017.9
20260503042658 6 129 4.8 11.3 0.00 0.00 0.00 78 1017.8
20260503042153 6 132 6.4 11.3 0.00 0.00 0.00 78 1017.8
20260503041648 6 122 4.8 11.3 0.00 0.00 0.00 79 1017.7
20260503041141 6 134 4.8 9.7 0.00 0.00 0.00 79 1017.6
20260503040634 6 142 4.8 11.3 0.00 0.00 0.00 78 1017.5
20260503040127 6 136 6.4 12.9 0.00 0.00 0.00 78 1017.5
20260503035623 6 150 6.4 12.9 0.00 0.00 0.00 78 1017.4
20260503035121 6 139 6.4 12.9 0.00 0.00 0.00 78 1017.4
20260503034611 6 159 4.8 12.9 0.00 0.00 0.00 78 1017.3
20260503034115 6 148 3.2 9.7 0.00 0.00 0.00 78 1017.2
20260503033611 6 130 3.2 9.7 0.00 0.00 0.00 78 1017.1
20260503033110 6 145 4.8 12.9 0.00 0.00 0.00 79 1017.1
20260503032616 6 150 4.8 12.9 0.00 0.00 0.00 78 1017.1
20260503032113 6 156 4.8 11.3 0.00 0.00 0.00 79 1017.0
20260503031106 6 121 3.2 9.7 0.00 0.00 0.00 80 1017.0
20260503030609 6 132 1.6 6.4 0.00 0.00 0.00 82 1016.9
20260503030115 6 145 0.0 6.4 0.00 0.00 0.00 84 1016.9
20260503025107 6 120 0.0 1.6 0.00 0.00 0.00 84 1017.0
20260503024607 6 120 0.0 1.6 0.00 0.00 0.00 84 1017.0
20260503024104 6 119 0.0 3.2 0.00 0.00 0.00 84 1016.9
20260503023607 6 120 1.6 4.8 0.00 0.00 0.00 84 1016.9
20260503023106 6 118 1.6 4.8 0.00 0.00 0.00 84 1017.0
20260503022606 6 104 1.6 4.8 0.00 0.00 0.00 84 1017.0
20260503021104 6 121 1.6 6.4 0.00 0.00 0.00 84 1017.0
20260503020106 6 153 3.2 8.0 0.00 0.00 0.00 83 1017.0
20260503015605 6 126 3.2 8.0 0.00 0.00 0.00 83 1017.1
20260503015107 6 166 3.2 8.0 0.00 0.00 0.00 83 1017.0
20260503014602 6 132 3.2 8.0 0.00 0.00 0.00 83 1017.1
20260503014106 6 146 0.0 6.4 0.00 0.00 0.00 84 1017.0
20260503013603 6 150 0.0 1.6 0.00 0.00 0.00 84 1017.0
20260503013102 6 149 0.0 4.8 0.00 0.00 0.00 84 1017.0
20260503012603 6 136 0.0 4.8 0.00 0.00 0.00 84 1017.0
20260503012100 6 138 1.6 3.2 0.00 0.00 0.00 84 1017.0
20260503011101 6 139 1.6 3.2 0.00 0.00 0.00 84 1017.0
20260503010616 6 141 0.0 3.2 0.00 0.00 0.00 85 1017.0
20260503005604 6 101 0.0 1.6 0.00 0.00 0.00 85 1017.0
20260503005058 6 102 0.0 1.6 0.00 0.00 0.00 85 1017.0
20260503004556 6 27 0.0 0.0 0.00 0.00 0.00 85 1017.0
20260503004057 6 27 0.0 0.0 0.00 0.00 0.00 85 1016.9
20260503003557 6 27 0.0 0.0 0.00 0.00 0.00 85 1016.9
20260503002558 6 27 0.0 1.6 0.00 0.00 0.00 85 1017.0
20260503002056 6 39 0.0 1.6 0.00 0.00 0.00 86 1017.1
20260503001557 6 39 0.0 0.0 0.00 0.00 0.00 86 1017.1
20260503001059 6 124 0.0 1.6 0.00 0.00 0.00 87 1017.2
20260503000109 5 124 0.0 3.2 0.00 0.00 0.00 86 1017.2
20260502235552 5 124 1.6 4.8 0.00 0.00 0.00 87 1017.2
20260502235053 5 123 3.2 6.4 0.00 0.00 0.00 86 1017.2
20260502234554 5 134 3.2 6.4 0.00 0.00 0.00 86 1017.3
20260502234054 5 136 3.2 4.8 0.00 0.00 0.00 85 1017.3
20260502233552 5 134 1.6 4.8 0.00 0.00 0.00 85 1017.2
20260502233053 5 158 3.2 8.0 0.00 0.00 0.00 85 1017.2
20260502232553 5 132 4.8 8.0 0.00 0.00 0.00 84 1017.3
20260502232048 5 104 1.6 8.0 0.00 0.00 0.00 83 1017.3
20260502231550 6 147 0.0 1.6 0.00 0.00 0.00 83 1017.2
20260502230053 6 94 0.0 1.6 0.00 0.00 0.00 82 1017.2
20260502225540 6 345 0.0 1.6 0.00 0.00 0.00 81 1017.2
20260502225040 6 343 0.0 1.6 0.00 0.00 0.00 81 1017.2
20260502224536 6 309 0.0 1.6 0.00 0.00 0.00 80 1017.2
20260502224041 7 311 0.0 1.6 0.00 0.00 0.00 80 1017.3
20260502223535 7 312 0.0 1.6 0.00 0.00 0.00 79 1017.3
20260502223033 7 311 1.6 4.8 0.00 0.00 0.00 78 1017.2
20260502222533 7 19 1.6 4.8 0.00 0.00 0.00 78 1017.3
20260502222032 7 13 1.6 4.8 0.00 0.00 0.00 78 1017.6
20260502221530 7 12 0.0 4.8 0.00 0.00 0.00 77 1017.6
20260502221026 7 24 0.0 4.8 0.00 0.00 0.00 76 1017.6
20260502220527 7 145 0.0 1.6 0.00 0.00 0.00 76 1017.6
20260502220039 7 145 0.0 0.0 0.00 0.00 0.00 75 1017.7
20260502215523 7 145 0.0 1.6 0.00 0.00 0.00 75 1017.7
20260502215024 7 145 0.0 1.6 0.00 0.00 0.00 75 1017.8
20260502214024 7 145 0.0 1.6 0.00 0.00 0.00 74 1017.8
20260502213521 7 145 1.6 8.0 0.00 0.00 0.00 73 1017.8
20260502211509 8 47 0.0 1.6 0.00 0.00 0.00 70 1017.7
20260502210457 8 23 0.0 1.6 0.00 0.00 0.00 71 1017.7
20260502205951 8 72 0.0 0.0 0.00 0.00 0.00 71 1017.7
20260502205445 8 72 0.0 1.6 0.00 0.00 0.00 71 1017.7
20260502204940 8 72 0.0 1.6 0.00 0.00 0.00 71 1017.7
20260502203927 8 72 0.0 1.6 0.00 0.00 0.00 70 1017.8
20260502203421 8 72 0.0 4.8 0.00 0.00 0.00 69 1017.7
20260502202915 8 153 0.0 4.8 0.00 0.00 0.00 68 1017.7
20260502202409 8 131 1.6 4.8 0.00 0.00 0.00 66 1017.6
20260502201902 8 129 3.2 6.4 0.00 0.00 0.00 65 1017.8
20260502201400 8 142 3.2 6.4 0.00 0.00 0.00 63 1017.9
20260502200345 9 129 1.6 4.8 0.00 0.00 0.00 61 1017.8
20260502195838 10 161 0.0 3.2 0.00 0.00 0.00 60 1017.7
20260502195333 10 90 1.6 6.4 0.00 0.00 0.00 59 1017.7